Time,TemperatureF,DewpointF,PressureIn,WindDirection,WindDirectionDegrees,WindSpeedMPH,WindSpeedGustMPH,Humidity,HourlyPrecipIn,Conditions,Clouds,dailyrainin,SoftwareType,DateUTC
2013-08-23 00:00:00,69.7,69.1,29.87,North,360,0.0,8.0,98,0.00,,,0.00,Wunderground v.1.15,2013-08-23 04:00:00,
2013-08-23 00:05:00,69.8,69.2,29.86,North,360,0.0,8.0,98,0.00,,,0.00,Wunderground v.1.15,2013-08-23 04:05:00,
2013-08-23 00:10:00,69.8,69.2,29.86,North,360,0.0,8.0,98,0.00,,,0.00,Wunderground v.1.15,2013-08-23 04:10:00,
2013-08-23 00:15:00,69.7,68.8,29.86,ENE,59,0.0,8.0,97,0.00,,,0.00,Wunderground v.1.15,2013-08-23 04:15:00,
2013-08-23 00:20:00,69.6,68.7,29.86,ENE,59,0.0,8.0,97,0.00,,,0.00,Wunderground v.1.15,2013-08-23 04:20:00,
2013-08-23 00:25:00,69.4,68.2,29.86,ENE,59,0.0,8.0,96,0.00,,,0.00,Wunderground v.1.15,2013-08-23 04:25:00,
2013-08-23 00:30:00,69.3,68.1,29.86,ENE,59,0.0,8.0,96,0.00,,,0.00,Wunderground v.1.15,2013-08-23 04:30:00,
2013-08-23 00:35:00,69.2,68.0,29.87,ENE,59,0.0,8.0,96,0.00,,,0.00,Wunderground v.1.15,2013-08-23 04:35:00,
2013-08-23 00:40:00,69.0,67.5,29.86,ENE,78,0.0,8.0,95,0.00,,,0.00,Wunderground v.1.15,2013-08-23 04:40:00,
2013-08-23 00:50:00,68.8,67.3,29.86,NNW,344,0.0,8.0,95,0.00,,,0.00,Wunderground v.1.15,2013-08-23 04:50:00,
2013-08-23 00:55:00,68.8,67.0,29.86,NNW,344,0.0,8.0,94,0.00,,,0.00,Wunderground v.1.15,2013-08-23 04:55:00,
2013-08-23 01:05:00,68.6,66.5,29.86,NE,39,0.0,8.0,93,0.00,,,0.00,Wunderground v.1.15,2013-08-23 05:05:00,
2013-08-23 01:10:00,68.7,66.6,29.86,NE,46,0.0,8.0,93,0.00,,,0.00,Wunderground v.1.15,2013-08-23 05:10:00,
2013-08-23 01:15:00,68.7,66.6,29.86,NE,46,0.0,8.0,93,0.00,,,0.00,Wunderground v.1.15,2013-08-23 05:15:00,
2013-08-23 01:20:00,68.7,66.6,29.87,NNW,348,0.0,8.0,93,0.00,,,0.00,Wunderground v.1.15,2013-08-23 05:20:00,
2013-08-23 01:25:00,68.8,66.4,29.86,NNW,340,1.0,8.0,92,0.00,,,0.00,Wunderground v.1.15,2013-08-23 05:25:00,
2013-08-23 01:30:00,68.9,66.5,29.86,NE,40,1.0,1.0,92,0.00,,,0.00,Wunderground v.1.15,2013-08-23 05:30:00,
2013-08-23 01:40:00,68.8,66.1,29.86,North,9,0.0,8.0,91,0.00,,,0.00,Wunderground v.1.15,2013-08-23 05:40:00,
2013-08-23 01:45:00,68.8,66.4,29.86,East,88,0.0,8.0,92,0.00,,,0.00,Wunderground v.1.15,2013-08-23 05:45:00,
2013-08-23 01:50:00,68.7,66.3,29.86,North,355,0.0,8.0,92,0.00,,,0.00,Wunderground v.1.15,2013-08-23 05:50:00,
2013-08-23 01:55:00,68.7,66.0,29.86,NE,51,0.0,8.0,91,0.00,,,0.00,Wunderground v.1.15,2013-08-23 05:55:00,
2013-08-23 02:00:00,68.7,66.3,29.86,NE,40,1.0,8.0,92,0.00,,,0.00,Wunderground v.1.15,2013-08-23 06:00:00,
2013-08-23 02:05:00,68.7,66.0,29.86,NNE,15,1.0,8.0,91,0.00,,,0.00,Wunderground v.1.15,2013-08-23 06:05:00,
2013-08-23 02:10:00,68.7,66.0,29.86,NE,55,1.0,1.0,91,0.00,,,0.00,Wunderground v.1.15,2013-08-23 06:10:00,
2013-08-23 02:15:00,68.7,66.0,29.87,NNE,32,1.0,2.0,91,0.00,,,0.00,Wunderground v.1.15,2013-08-23 06:15:00,
2013-08-23 02:25:00,68.6,65.9,29.86,NNE,19,1.0,8.0,91,0.00,,,0.00,Wunderground v.1.15,2013-08-23 06:25:00,
2013-08-23 02:30:00,68.6,65.9,29.86,North,5,1.0,8.0,91,0.00,,,0.00,Wunderground v.1.15,2013-08-23 06:30:00,
2013-08-23 02:35:00,68.6,65.9,29.87,NNW,335,1.0,8.0,91,0.00,,,0.00,Wunderground v.1.15,2013-08-23 06:35:00,
2013-08-23 02:40:00,68.5,66.1,29.86,NE,43,1.0,8.0,92,0.00,,,0.00,Wunderground v.1.15,2013-08-23 06:40:00,
2013-08-23 02:45:00,68.4,66.0,29.86,North,5,1.0,8.0,92,0.00,,,0.00,Wunderground v.1.15,2013-08-23 06:45:00,
2013-08-23 02:50:00,68.3,65.9,29.86,ENE,63,0.0,8.0,92,0.00,,,0.00,Wunderground v.1.15,2013-08-23 06:50:00,
2013-08-23 03:00:00,67.9,65.5,29.87,North,360,1.0,8.0,92,0.00,,,0.00,Wunderground v.1.15,2013-08-23 07:00:00,
2013-08-23 03:10:00,67.6,65.5,29.86,NNE,15,0.0,8.0,93,0.00,,,0.00,Wunderground v.1.15,2013-08-23 07:10:00,
2013-08-23 03:15:00,67.4,65.3,29.87,NNE,31,0.0,8.0,93,0.00,,,0.00,Wunderground v.1.15,2013-08-23 07:15:00,
2013-08-23 03:20:00,67.3,65.2,29.86,North,5,0.0,8.0,93,0.00,,,0.00,Wunderground v.1.15,2013-08-23 07:20:00,
2013-08-23 03:25:00,67.1,65.0,29.86,ENE,60,0.0,8.0,93,0.00,,,0.00,Wunderground v.1.15,2013-08-23 07:25:00,
2013-08-23 03:30:00,67.0,65.2,29.86,North,355,0.0,8.0,94,0.00,,,0.00,Wunderground v.1.15,2013-08-23 07:30:00,
2013-08-23 03:35:00,66.8,65.0,29.86,NNW,348,0.0,8.0,94,0.00,,,0.00,Wunderground v.1.15,2013-08-23 07:35:00,
2013-08-23 03:40:00,66.6,64.8,29.86,East,89,0.0,8.0,94,0.00,,,0.00,Wunderground v.1.15,2013-08-23 07:40:00,
2013-08-23 03:45:00,66.4,64.9,29.86,East,89,0.0,8.0,95,0.00,,,0.00,Wunderground v.1.15,2013-08-23 07:45:00,
2013-08-23 03:55:00,66.1,64.6,29.87,NNE,30,0.0,8.0,95,0.00,,,0.00,Wunderground v.1.15,2013-08-23 07:55:00,
2013-08-23 04:00:00,65.9,64.4,29.86,NE,47,0.0,8.0,95,0.00,,,0.00,Wunderground v.1.15,2013-08-23 08:00:00,
2013-08-23 04:05:00,65.8,64.6,29.87,North,5,0.0,8.0,96,0.00,,,0.00,Wunderground v.1.15,2013-08-23 08:05:00,
2013-08-23 04:10:00,65.7,64.5,29.87,NE,55,0.0,8.0,96,0.00,,,0.00,Wunderground v.1.15,2013-08-23 08:10:00,
2013-08-23 04:15:00,65.6,64.4,29.87,NE,52,0.0,8.0,96,0.00,,,0.00,Wunderground v.1.15,2013-08-23 08:15:00,
2013-08-23 04:20:00,65.4,63.9,29.87,ENE,60,0.0,8.0,95,0.00,,,0.00,Wunderground v.1.15,2013-08-23 08:20:00,
2013-08-23 04:25:00,65.4,63.9,29.87,ENE,60,0.0,8.0,95,0.00,,,0.00,Wunderground v.1.15,2013-08-23 08:25:00,
2013-08-23 04:35:00,65.1,63.6,29.87,ENE,60,0.0,8.0,95,0.00,,,0.00,Wunderground v.1.15,2013-08-23 08:35:00,
2013-08-23 04:40:00,64.9,63.4,29.88,ENE,63,0.0,8.0,95,0.00,,,0.00,Wunderground v.1.15,2013-08-23 08:40:00,
2013-08-23 04:45:00,64.8,63.3,29.87,NNW,344,0.0,8.0,95,0.00,,,0.00,Wunderground v.1.15,2013-08-23 08:45:00,
2013-08-23 04:50:00,64.7,63.2,29.87,NE,52,0.0,8.0,95,0.00,,,0.00,Wunderground v.1.15,2013-08-23 08:50:00,
2013-08-23 04:55:00,64.7,63.5,29.88,NE,52,0.0,8.0,96,0.00,,,0.00,Wunderground v.1.15,2013-08-23 08:55:00,
2013-08-23 05:00:00,64.5,63.3,29.88,NE,52,0.0,8.0,96,0.00,,,0.00,Wunderground v.1.15,2013-08-23 09:00:00,
2013-08-23 05:05:00,64.3,63.1,29.88,NE,52,0.0,8.0,96,0.00,,,0.00,Wunderground v.1.15,2013-08-23 09:05:00,
2013-08-23 05:10:00,64.1,62.9,29.88,NNE,19,0.0,8.0,96,0.00,,,0.00,Wunderground v.1.15,2013-08-23 09:10:00,
2013-08-23 05:20:00,63.7,62.5,29.89,NNE,19,0.0,8.0,96,0.00,,,0.00,Wunderground v.1.15,2013-08-23 09:20:00,
2013-08-23 05:25:00,63.6,62.4,29.89,NNE,19,0.0,8.0,96,0.00,,,0.00,Wunderground v.1.15,2013-08-23 09:25:00,
2013-08-23 05:30:00,63.5,62.3,29.89,NNE,19,0.0,8.0,96,0.00,,,0.00,Wunderground v.1.15,2013-08-23 09:30:00,
2013-08-23 05:35:00,63.3,62.1,29.89,NNE,19,0.0,8.0,96,0.00,,,0.00,Wunderground v.1.15,2013-08-23 09:35:00,
2013-08-23 05:40:00,63.1,61.9,29.90,NNE,19,0.0,8.0,96,0.00,,,0.00,Wunderground v.1.15,2013-08-23 09:40:00,
2013-08-23 05:45:00,62.9,61.7,29.90,NNE,19,0.0,8.0,96,0.00,,,0.00,Wunderground v.1.15,2013-08-23 09:45:00,
2013-08-23 05:55:00,62.6,61.4,29.91,NNE,19,0.0,8.0,96,0.00,,,0.00,Wunderground v.1.15,2013-08-23 09:55:00,
2013-08-23 06:05:00,62.2,61.0,29.91,NNE,19,0.0,8.0,96,0.00,,,0.00,Wunderground v.1.15,2013-08-23 10:05:00,
2013-08-23 06:10:00,62.0,61.1,29.91,NNE,19,0.0,8.0,97,0.00,,,0.00,Wunderground v.1.15,2013-08-23 10:10:00,
2013-08-23 06:15:00,61.8,60.9,29.91,NNE,19,0.0,8.0,97,0.00,,,0.00,Wunderground v.1.15,2013-08-23 10:15:00,
2013-08-23 06:20:00,61.8,60.9,29.92,NNE,19,0.0,8.0,97,0.00,,,0.00,Wunderground v.1.15,2013-08-23 10:20:00,
2013-08-23 06:25:00,61.7,60.8,29.92,NNE,19,0.0,8.0,97,0.00,,,0.00,Wunderground v.1.15,2013-08-23 10:25:00,
2013-08-23 06:30:00,61.8,61.2,29.92,NNE,21,0.0,8.0,98,0.00,,,0.00,Wunderground v.1.15,2013-08-23 10:30:00,
2013-08-23 06:35:00,61.9,61.3,29.92,NNE,21,0.0,8.0,98,0.00,,,0.00,Wunderground v.1.15,2013-08-23 10:35:00,
2013-08-23 06:40:00,62.1,61.5,29.92,NNE,21,0.0,8.0,98,0.00,,,0.00,Wunderground v.1.15,2013-08-23 10:40:00,
2013-08-23 06:50:00,62.4,62.1,29.92,NNE,21,0.0,8.0,99,0.00,,,0.00,Wunderground v.1.15,2013-08-23 10:50:00,
2013-08-23 06:55:00,62.6,62.3,29.93,NNE,21,0.0,8.0,99,0.00,,,0.00,Wunderground v.1.15,2013-08-23 10:55:00,
2013-08-23 07:00:00,62.7,62.1,29.93,NNE,21,0.0,8.0,98,0.00,,,0.00,Wunderground v.1.15,2013-08-23 11:00:00,
2013-08-23 07:05:00,62.9,62.3,29.93,NNE,21,0.0,8.0,98,0.00,,,0.00,Wunderground v.1.15,2013-08-23 11:05:00,
2013-08-23 07:10:00,63.0,62.4,29.93,NNE,21,0.0,8.0,98,0.00,,,0.00,Wunderground v.1.15,2013-08-23 11:10:00,
2013-08-23 07:15:00,63.2,62.6,29.93,NNE,21,0.0,8.0,98,0.00,,,0.00,Wunderground v.1.15,2013-08-23 11:15:00,
2013-08-23 07:20:00,63.4,62.8,29.94,NNE,21,0.0,8.0,98,0.00,,,0.00,Wunderground v.1.15,2013-08-23 11:20:00,
2013-08-23 07:30:00,63.8,62.9,29.94,NNW,348,0.0,8.0,97,0.00,,,0.00,Wunderground v.1.15,2013-08-23 11:30:00,
2013-08-23 07:35:00,64.1,62.9,29.94,NNW,348,0.0,8.0,96,0.00,,,0.00,Wunderground v.1.15,2013-08-23 11:35:00,
2013-08-23 07:45:00,64.4,62.6,29.95,North,350,0.0,8.0,94,0.00,,,0.00,Wunderground v.1.15,2013-08-23 11:45:00,
2013-08-23 07:50:00,64.7,62.9,29.95,North,350,0.0,8.0,94,0.00,,,0.00,Wunderground v.1.15,2013-08-23 11:50:00,
2013-08-23 07:55:00,64.9,62.8,29.95,North,5,0.0,8.0,93,0.00,,,0.00,Wunderground v.1.15,2013-08-23 11:55:00,
2013-08-23 08:00:00,65.1,63.0,29.95,North,5,0.0,8.0,93,0.00,,,0.00,Wunderground v.1.15,2013-08-23 12:00:00,
2013-08-23 08:05:00,65.2,62.8,29.95,North,11,0.0,8.0,92,0.00,,,0.00,Wunderground v.1.15,2013-08-23 12:05:00,
2013-08-23 08:10:00,65.3,62.9,29.95,North,11,0.0,8.0,92,0.00,,,0.00,Wunderground v.1.15,2013-08-23 12:10:00,
2013-08-23 08:15:00,65.4,63.0,29.96,North,360,0.0,8.0,92,0.00,,,0.00,Wunderground v.1.15,2013-08-23 12:15:00,
2013-08-23 08:25:00,65.7,63.3,29.96,NNW,347,0.0,8.0,92,0.00,,,0.00,Wunderground v.1.15,2013-08-23 12:25:00,
2013-08-23 08:30:00,66.0,63.3,29.96,NNW,347,0.0,8.0,91,0.00,,,0.00,Wunderground v.1.15,2013-08-23 12:30:00,
2013-08-23 08:35:00,66.4,63.7,29.96,NNW,347,0.0,8.0,91,0.00,,,0.00,Wunderground v.1.15,2013-08-23 12:35:00,
2013-08-23 08:40:00,67.0,64.3,29.96,NNW,344,0.0,8.0,91,0.00,,,0.00,Wunderground v.1.15,2013-08-23 12:40:00,
2013-08-23 08:45:00,67.9,64.5,29.96,NNW,344,0.0,8.0,89,0.00,,,0.00,Wunderground v.1.15,2013-08-23 12:45:00,
2013-08-23 08:50:00,68.3,64.3,29.96,North,355,0.0,8.0,87,0.00,,,0.00,Wunderground v.1.15,2013-08-23 12:50:00,
2013-08-23 08:55:00,68.5,64.8,29.96,NNE,27,0.0,8.0,88,0.00,,,0.00,Wunderground v.1.15,2013-08-23 12:55:00,
2013-08-23 09:00:00,68.9,64.9,29.96,North,355,0.0,8.0,87,0.00,,,0.00,Wunderground v.1.15,2013-08-23 13:00:00,
2013-08-23 09:05:00,69.5,64.1,29.96,North,351,1.0,8.0,83,0.00,,,0.00,Wunderground v.1.15,2013-08-23 13:05:00,
2013-08-23 09:15:00,71.0,64.2,29.96,NE,45,1.0,8.0,79,0.00,,,0.00,Wunderground v.1.15,2013-08-23 13:15:00,
2013-08-23 09:20:00,71.7,64.1,29.96,NE,52,1.0,8.0,77,0.00,,,0.00,Wunderground v.1.15,2013-08-23 13:20:00,
2013-08-23 09:25:00,71.6,64.0,29.96,NNE,26,1.0,8.0,77,0.00,,,0.00,Wunderground v.1.15,2013-08-23 13:25:00,
2013-08-23 09:30:00,71.8,64.2,29.96,NE,43,1.0,8.0,77,0.00,,,0.00,Wunderground v.1.15,2013-08-23 13:30:00,
2013-08-23 09:35:00,71.8,63.4,29.96,North,5,1.0,8.0,75,0.00,,,0.00,Wunderground v.1.15,2013-08-23 13:35:00,
2013-08-23 09:40:00,72.1,64.1,29.96,North,360,1.0,8.0,76,0.00,,,0.00,Wunderground v.1.15,2013-08-23 13:40:00,
2013-08-23 09:45:00,72.4,64.0,29.96,NE,37,1.0,8.0,75,0.00,,,0.00,Wunderground v.1.15,2013-08-23 13:45:00,
2013-08-23 09:50:00,73.0,64.6,29.96,ENE,63,1.0,8.0,75,0.00,,,0.00,Wunderground v.1.15,2013-08-23 13:50:00,
2013-08-23 09:55:00,73.2,64.4,29.96,NE,43,0.0,8.0,74,0.00,,,0.00,Wunderground v.1.15,2013-08-23 13:55:00,
2013-08-23 10:05:00,73.1,64.7,29.97,NNE,13,1.0,8.0,75,0.00,,,0.00,Wunderground v.1.15,2013-08-23 14:05:00,
2013-08-23 10:10:00,73.7,64.1,29.97,NE,54,1.0,8.0,72,0.00,,,0.00,Wunderground v.1.15,2013-08-23 14:10:00,
2013-08-23 10:15:00,74.0,64.8,29.97,NE,44,1.0,8.0,73,0.00,,,0.00,Wunderground v.1.15,2013-08-23 14:15:00,
2013-08-23 10:20:00,74.3,65.1,29.97,North,360,1.0,8.0,73,0.00,,,0.00,Wunderground v.1.15,2013-08-23 14:20:00,
2013-08-23 10:25:00,74.6,65.0,29.97,NE,36,1.0,8.0,72,0.00,,,0.00,Wunderground v.1.15,2013-08-23 14:25:00,
2013-08-23 10:30:00,74.6,63.3,29.97,ENE,65,1.0,8.0,68,0.00,,,0.00,Wunderground v.1.15,2013-08-23 14:30:00,
2013-08-23 10:35:00,74.8,63.1,29.97,NNE,29,1.0,8.0,67,0.00,,,0.00,Wunderground v.1.15,2013-08-23 14:35:00,
2013-08-23 10:40:00,75.1,64.6,29.97,NE,52,1.0,8.0,70,0.00,,,0.00,Wunderground v.1.15,2013-08-23 14:40:00,
2013-08-23 10:50:00,74.9,63.2,29.97,NE,46,1.0,8.0,67,0.00,,,0.00,Wunderground v.1.15,2013-08-23 14:50:00,
2013-08-23 10:55:00,74.8,62.7,29.97,North,5,2.0,8.0,66,0.00,,,0.00,Wunderground v.1.15,2013-08-23 14:55:00,
2013-08-23 11:00:00,74.9,64.0,29.97,North,10,2.0,8.0,69,0.00,,,0.00,Wunderground v.1.15,2013-08-23 15:00:00,
2013-08-23 11:05:00,74.9,63.6,29.97,North,360,1.0,8.0,68,0.00,,,0.00,Wunderground v.1.15,2013-08-23 15:05:00,
2013-08-23 11:10:00,74.8,63.1,29.97,North,355,1.0,8.0,67,0.00,,,0.00,Wunderground v.1.15,2013-08-23 15:10:00,
2013-08-23 11:15:00,75.0,64.1,29.97,North,355,1.0,8.0,69,0.00,,,0.00,Wunderground v.1.15,2013-08-23 15:15:00,
2013-08-23 11:20:00,75.1,63.4,29.97,North,11,1.0,8.0,67,0.00,,,0.00,Wunderground v.1.15,2013-08-23 15:20:00,
2013-08-23 11:30:00,75.2,64.3,29.97,NE,46,1.0,1.0,69,0.00,,,0.00,Wunderground v.1.15,2013-08-23 15:30:00,
2013-08-23 11:35:00,75.6,65.1,29.97,NE,53,1.0,8.0,70,0.00,,,0.00,Wunderground v.1.15,2013-08-23 15:35:00,
2013-08-23 11:40:00,75.7,63.5,29.97,NE,52,1.0,8.0,66,0.00,,,0.00,Wunderground v.1.15,2013-08-23 15:40:00,
2013-08-23 11:45:00,75.8,63.2,29.97,NNE,14,1.0,8.0,65,0.00,,,0.00,Wunderground v.1.15,2013-08-23 15:45:00,
2013-08-23 11:50:00,75.9,62.4,29.97,NE,49,2.0,8.0,63,0.00,,,0.00,Wunderground v.1.15,2013-08-23 15:50:00,
2013-08-23 11:55:00,76.1,62.6,29.97,North,351,2.0,8.0,63,0.00,,,0.00,Wunderground v.1.15,2013-08-23 15:55:00,
2013-08-23 12:00:00,76.1,63.5,29.97,NNW,344,1.0,1.0,65,0.00,,,0.00,Wunderground v.1.15,2013-08-23 16:00:00,
2013-08-23 12:10:00,75.8,62.3,29.97,North,351,1.0,1.0,63,0.00,,,0.00,Wunderground v.1.15,2013-08-23 16:10:00,
2013-08-23 12:15:00,75.3,62.7,29.97,North,5,1.0,8.0,65,0.00,,,0.00,Wunderground v.1.15,2013-08-23 16:15:00,
2013-08-23 12:20:00,75.4,63.2,29.97,NNE,13,1.0,1.0,66,0.00,,,0.00,Wunderground v.1.15,2013-08-23 16:20:00,
2013-08-23 12:25:00,75.7,63.1,29.97,NNE,30,0.0,8.0,65,0.00,,,0.00,Wunderground v.1.15,2013-08-23 16:25:00,
2013-08-23 12:30:00,76.0,62.5,29.97,NNE,20,1.0,1.0,63,0.00,,,0.00,Wunderground v.1.15,2013-08-23 16:30:00,
2013-08-23 12:35:00,76.0,60.2,29.96,NNW,341,1.0,8.0,58,0.00,,,0.00,Wunderground v.1.15,2013-08-23 16:35:00,
2013-08-23 12:45:00,76.4,63.3,29.96,NE,35,1.0,8.0,64,0.00,,,0.00,Wunderground v.1.15,2013-08-23 16:45:00,
2013-08-23 12:55:00,76.0,62.5,29.97,NNE,25,1.0,8.0,63,0.00,,,0.00,Wunderground v.1.15,2013-08-23 16:55:00,
2013-08-23 13:00:00,75.1,61.2,29.97,NE,38,1.0,1.0,62,0.00,,,0.00,Wunderground v.1.15,2013-08-23 17:00:00,
2013-08-23 13:05:00,74.7,61.7,29.97,North,9,2.0,2.0,64,0.00,,,0.00,Wunderground v.1.15,2013-08-23 17:05:00,
2013-08-23 13:10:00,74.6,62.1,29.97,NE,49,2.0,2.0,65,0.00,,,0.00,Wunderground v.1.15,2013-08-23 17:10:00,
2013-08-23 13:15:00,74.6,62.5,29.97,North,5,1.0,8.0,66,0.00,,,0.00,Wunderground v.1.15,2013-08-23 17:15:00,
2013-08-23 13:25:00,74.2,61.7,29.97,ENE,65,1.0,8.0,65,0.00,,,0.00,Wunderground v.1.15,2013-08-23 17:25:00,
2013-08-23 13:30:00,73.9,60.5,29.97,North,5,1.0,1.0,63,0.00,,,0.00,Wunderground v.1.15,2013-08-23 17:30:00,
2013-08-23 13:35:00,73.8,60.9,29.97,NE,50,1.0,2.0,64,0.00,,,0.00,Wunderground v.1.15,2013-08-23 17:35:00,
2013-08-23 13:40:00,73.7,61.2,29.98,North,360,1.0,8.0,65,0.00,,,0.00,Wunderground v.1.15,2013-08-23 17:40:00,
2013-08-23 13:50:00,73.5,60.6,29.98,NNE,13,1.0,8.0,64,0.00,,,0.00,Wunderground v.1.15,2013-08-23 17:50:00,
2013-08-23 13:55:00,73.8,63.4,29.98,NE,38,1.0,8.0,70,0.00,,,0.00,Wunderground v.1.15,2013-08-23 17:55:00,
2013-08-23 14:00:00,74.0,61.5,29.98,North,9,1.0,8.0,65,0.00,,,0.00,Wunderground v.1.15,2013-08-23 18:00:00,
2013-08-23 14:05:00,73.7,60.8,29.98,NE,45,1.0,8.0,64,0.00,,,0.00,Wunderground v.1.15,2013-08-23 18:05:00,
2013-08-23 14:10:00,73.5,61.0,29.98,NE,53,1.0,1.0,65,0.00,,,0.00,Wunderground v.1.15,2013-08-23 18:10:00,
2013-08-23 14:15:00,73.4,60.5,29.98,NNE,27,1.0,3.0,64,0.00,,,0.00,Wunderground v.1.15,2013-08-23 18:15:00,
2013-08-23 14:20:00,73.3,59.5,29.98,NNE,13,1.0,8.0,62,0.00,,,0.00,Wunderground v.1.15,2013-08-23 18:20:00,
2013-08-23 14:30:00,73.4,60.9,29.98,North,355,1.0,1.0,65,0.00,,,0.00,Wunderground v.1.15,2013-08-23 18:30:00,
2013-08-23 14:35:00,73.3,59.5,29.98,North,11,1.0,8.0,62,0.00,,,0.00,Wunderground v.1.15,2013-08-23 18:35:00,
2013-08-23 14:40:00,73.3,59.9,29.98,North,5,1.0,1.0,63,0.00,,,0.00,Wunderground v.1.15,2013-08-23 18:40:00,
2013-08-23 14:45:00,73.4,60.5,29.98,NNE,25,1.0,8.0,64,0.00,,,0.00,Wunderground v.1.15,2013-08-23 18:45:00,
2013-08-23 14:50:00,73.3,62.1,29.98,North,360,1.0,1.0,68,0.00,,,0.00,Wunderground v.1.15,2013-08-23 18:50:00,
2013-08-23 14:55:00,73.3,60.8,29.98,NE,37,1.0,8.0,65,0.00,,,0.00,Wunderground v.1.15,2013-08-23 18:55:00,
2013-08-23 15:00:00,73.3,59.5,29.98,North,355,1.0,8.0,62,0.00,,,0.00,Wunderground v.1.15,2013-08-23 19:00:00,
2013-08-23 15:05:00,73.0,58.8,29.98,North,360,2.0,8.0,61,0.00,,,0.00,Wunderground v.1.15,2013-08-23 19:05:00,
2013-08-23 15:15:00,72.8,59.0,29.98,North,5,1.0,8.0,62,0.00,,,0.00,Wunderground v.1.15,2013-08-23 19:15:00,
2013-08-23 15:20:00,72.9,59.6,29.99,NE,52,1.0,8.0,63,0.00,,,0.00,Wunderground v.1.15,2013-08-23 19:20:00,
2013-08-23 15:25:00,73.0,59.2,29.98,North,5,1.0,8.0,62,0.00,,,0.00,Wunderground v.1.15,2013-08-23 19:25:00,
2013-08-23 15:30:00,73.1,59.8,29.98,NNE,25,1.0,8.0,63,0.00,,,0.00,Wunderground v.1.15,2013-08-23 19:30:00,
2013-08-23 15:35:00,73.1,59.3,29.98,NNE,33,1.0,8.0,62,0.00,,,0.00,Wunderground v.1.15,2013-08-23 19:35:00,
2013-08-23 15:40:00,73.1,58.8,29.98,North,11,1.0,1.0,61,0.00,,,0.00,Wunderground v.1.15,2013-08-23 19:40:00,
2013-08-23 15:45:00,73.2,58.5,29.98,NNE,32,1.0,8.0,60,0.00,,,0.00,Wunderground v.1.15,2013-08-23 19:45:00,
2013-08-23 15:55:00,72.9,58.7,29.98,NE,42,1.0,8.0,61,0.00,,,0.00,Wunderground v.1.15,2013-08-23 19:55:00,
2013-08-23 16:00:00,72.8,58.6,29.98,ENE,71,1.0,1.0,61,0.00,,,0.00,Wunderground v.1.15,2013-08-23 20:00:00,
2013-08-23 16:05:00,72.7,58.5,29.98,ENE,71,0.0,8.0,61,0.00,,,0.00,Wunderground v.1.15,2013-08-23 20:05:00,
2013-08-23 16:10:00,72.7,58.9,29.98,North,360,0.0,8.0,62,0.00,,,0.00,Wunderground v.1.15,2013-08-23 20:10:00,
2013-08-23 16:15:00,72.6,59.7,29.98,NNW,342,0.0,8.0,64,0.00,,,0.00,Wunderground v.1.15,2013-08-23 20:15:00,
2013-08-23 16:20:00,72.4,58.6,29.99,NNE,31,1.0,1.0,62,0.00,,,0.00,Wunderground v.1.15,2013-08-23 20:20:00,
2013-08-23 16:25:00,72.3,59.0,29.99,NE,38,1.0,8.0,63,0.00,,,0.00,Wunderground v.1.15,2013-08-23 20:25:00,
2013-08-23 16:35:00,72.2,57.5,29.99,NE,45,1.0,8.0,60,0.00,,,0.00,Wunderground v.1.15,2013-08-23 20:35:00,
2013-08-23 16:40:00,72.0,57.8,29.99,NNE,16,1.0,8.0,61,0.00,,,0.00,Wunderground v.1.15,2013-08-23 20:40:00,
2013-08-23 16:45:00,71.9,57.7,29.99,NE,55,1.0,8.0,61,0.00,,,0.00,Wunderground v.1.15,2013-08-23 20:45:00,
2013-08-23 16:50:00,71.7,58.0,29.99,NE,35,1.0,1.0,62,0.00,,,0.00,Wunderground v.1.15,2013-08-23 20:50:00,
2013-08-23 16:55:00,71.6,57.4,29.99,North,5,1.0,8.0,61,0.00,,,0.00,Wunderground v.1.15,2013-08-23 20:55:00,
2013-08-23 17:00:00,71.3,57.6,29.99,North,355,1.0,8.0,62,0.00,,,0.00,Wunderground v.1.15,2013-08-23 21:00:00,
2013-08-23 17:05:00,71.1,57.0,29.99,NNW,347,1.0,8.0,61,0.00,,,0.00,Wunderground v.1.15,2013-08-23 21:05:00,
2013-08-23 17:15:00,71.0,57.3,29.99,North,5,1.0,8.0,62,0.00,,,0.00,Wunderground v.1.15,2013-08-23 21:15:00,
2013-08-23 17:20:00,71.1,58.3,29.99,NNE,23,1.0,8.0,64,0.00,,,0.00,Wunderground v.1.15,2013-08-23 21:20:00,
2013-08-23 17:25:00,71.2,58.0,29.99,NNE,16,0.0,8.0,63,0.00,,,0.00,Wunderground v.1.15,2013-08-23 21:25:00,
2013-08-23 17:30:00,71.2,56.6,30.00,ENE,57,0.0,8.0,60,0.00,,,0.00,Wunderground v.1.15,2013-08-23 21:30:00,
2013-08-23 17:35:00,71.2,55.2,30.00,North,11,1.0,8.0,57,0.00,,,0.00,Wunderground v.1.15,2013-08-23 21:35:00,
2013-08-23 17:40:00,71.2,56.1,30.00,NNE,28,1.0,8.0,59,0.00,,,0.00,Wunderground v.1.15,2013-08-23 21:40:00,
2013-08-23 17:45:00,71.3,57.2,30.00,NNE,32,0.0,8.0,61,0.00,,,0.00,Wunderground v.1.15,2013-08-23 21:45:00,
2013-08-23 17:50:00,71.2,58.0,30.00,NW,326,0.0,8.0,63,0.00,,,0.00,Wunderground v.1.15,2013-08-23 21:50:00,
2013-08-23 18:00:00,70.6,56.5,29.99,NNE,22,1.0,1.0,61,0.00,,,0.00,Wunderground v.1.15,2013-08-23 22:00:00,
2013-08-23 18:10:00,70.3,56.7,29.99,NNE,24,0.0,8.0,62,0.00,,,0.00,Wunderground v.1.15,2013-08-23 22:10:00,
2013-08-23 18:15:00,70.2,56.1,29.99,East,86,0.0,8.0,61,0.00,,,0.00,Wunderground v.1.15,2013-08-23 22:15:00,
2013-08-23 18:20:00,70.1,55.1,29.99,North,355,0.0,8.0,59,0.00,,,0.00,Wunderground v.1.15,2013-08-23 22:20:00,
2013-08-23 18:25:00,70.1,55.6,30.00,NE,36,0.0,8.0,60,0.00,,,0.00,Wunderground v.1.15,2013-08-23 22:25:00,
2013-08-23 18:30:00,70.0,55.0,30.00,NE,40,0.0,8.0,59,0.00,,,0.00,Wunderground v.1.15,2013-08-23 22:30:00,
2013-08-23 18:35:00,69.9,54.9,30.00,NE,41,0.0,8.0,59,0.00,,,0.00,Wunderground v.1.15,2013-08-23 22:35:00,
2013-08-23 18:40:00,69.5,55.9,30.00,NE,41,0.0,8.0,62,0.00,,,0.00,Wunderground v.1.15,2013-08-23 22:40:00,
2013-08-23 18:45:00,69.0,59.2,30.00,NE,41,0.0,8.0,71,0.00,,,0.00,Wunderground v.1.15,2013-08-23 22:45:00,
2013-08-23 18:50:00,68.4,58.6,30.00,NE,41,0.0,8.0,71,0.00,,,0.00,Wunderground v.1.15,2013-08-23 22:50:00,
2013-08-23 19:00:00,67.5,57.4,30.00,NE,36,0.0,8.0,70,0.00,,,0.00,Wunderground v.1.15,2013-08-23 23:00:00,
2013-08-23 19:05:00,67.1,57.0,30.01,NE,36,0.0,8.0,70,0.00,,,0.00,Wunderground v.1.15,2013-08-23 23:05:00,
2013-08-23 19:10:00,66.7,57.4,30.01,NE,36,0.0,8.0,72,0.00,,,0.00,Wunderground v.1.15,2013-08-23 23:10:00,
2013-08-23 19:15:00,65.9,55.8,30.01,NE,36,0.0,8.0,70,0.00,,,0.00,Wunderground v.1.15,2013-08-23 23:15:00,
2013-08-23 19:20:00,65.4,56.9,30.01,NE,36,0.0,8.0,74,0.00,,,0.00,Wunderground v.1.15,2013-08-23 23:20:00,
2013-08-23 19:25:00,64.9,56.0,30.02,NE,36,0.0,8.0,73,0.00,,,0.00,Wunderground v.1.15,2013-08-23 23:25:00,
2013-08-23 19:30:00,64.5,55.7,30.02,NE,36,0.0,8.0,73,0.00,,,0.00,Wunderground v.1.15,2013-08-23 23:30:00,
2013-08-23 19:35:00,64.1,56.0,30.02,NE,36,0.0,8.0,75,0.00,,,0.00,Wunderground v.1.15,2013-08-23 23:35:00,
2013-08-23 19:40:00,63.6,55.5,30.03,NE,36,0.0,8.0,75,0.00,,,0.00,Wunderground v.1.15,2013-08-23 23:40:00,
2013-08-23 19:50:00,62.7,55.0,30.03,NE,36,0.0,8.0,76,0.00,,,0.00,Wunderground v.1.15,2013-08-23 23:50:00,
2013-08-23 19:55:00,62.5,55.2,30.03,NE,36,0.0,8.0,77,0.00,,,0.00,Wunderground v.1.15,2013-08-23 23:55:00,
2013-08-23 20:00:00,62.2,55.3,30.03,NE,36,0.0,8.0,78,0.00,,,0.00,Wunderground v.1.15,2013-08-24 00:00:00,
2013-08-23 20:05:00,61.9,55.3,30.03,NE,36,0.0,8.0,79,0.00,,,0.00,Wunderground v.1.15,2013-08-24 00:05:00,
2013-08-23 20:10:00,61.7,55.5,30.04,NE,36,0.0,8.0,80,0.00,,,0.00,Wunderground v.1.15,2013-08-24 00:10:00,
2013-08-23 20:15:00,61.5,55.6,30.04,NE,36,0.0,8.0,81,0.00,,,0.00,Wunderground v.1.15,2013-08-24 00:15:00,
2013-08-23 20:20:00,61.4,55.5,30.04,NE,36,0.0,8.0,81,0.00,,,0.00,Wunderground v.1.15,2013-08-24 00:20:00,
2013-08-23 20:25:00,61.2,55.3,30.05,NE,36,0.0,8.0,81,0.00,,,0.00,Wunderground v.1.15,2013-08-24 00:25:00,
2013-08-23 20:35:00,61.1,55.6,30.05,NE,36,0.0,8.0,82,0.00,,,0.00,Wunderground v.1.15,2013-08-24 00:35:00,
2013-08-23 20:40:00,61.0,55.5,30.06,NE,36,0.0,8.0,82,0.00,,,0.00,Wunderground v.1.15,2013-08-24 00:40:00,
2013-08-23 20:45:00,61.0,55.5,30.06,NE,36,0.0,8.0,82,0.00,,,0.00,Wunderground v.1.15,2013-08-24 00:45:00,
2013-08-23 20:50:00,60.9,55.4,30.06,NE,36,0.0,8.0,82,0.00,,,0.00,Wunderground v.1.15,2013-08-24 00:50:00,
2013-08-23 20:55:00,60.9,55.4,30.06,NE,36,0.0,8.0,82,0.00,,,0.00,Wunderground v.1.15,2013-08-24 00:55:00,
2013-08-23 21:00:00,60.8,55.6,30.07,NE,36,0.0,8.0,83,0.00,,,0.00,Wunderground v.1.15,2013-08-24 01:00:00,
2013-08-23 21:05:00,60.7,55.5,30.07,NE,36,0.0,8.0,83,0.00,,,0.00,Wunderground v.1.15,2013-08-24 01:05:00,
2013-08-23 21:15:00,60.5,55.6,30.07,NE,36,0.0,8.0,84,0.00,,,0.00,Wunderground v.1.15,2013-08-24 01:15:00,
2013-08-23 21:20:00,60.5,55.6,30.07,NE,36,0.0,8.0,84,0.00,,,0.00,Wunderground v.1.15,2013-08-24 01:20:00,
2013-08-23 21:30:00,60.4,55.5,30.08,NE,36,0.0,8.0,84,0.00,,,0.00,Wunderground v.1.15,2013-08-24 01:30:00,
2013-08-23 21:35:00,60.3,55.4,30.08,NE,36,0.0,8.0,84,0.00,,,0.00,Wunderground v.1.15,2013-08-24 01:35:00,
2013-08-23 21:40:00,60.5,55.6,30.08,NE,36,0.0,8.0,84,0.00,,,0.00,Wunderground v.1.15,2013-08-24 01:40:00,
2013-08-23 21:45:00,60.4,55.5,30.08,NE,36,0.0,8.0,84,0.00,,,0.00,Wunderground v.1.15,2013-08-24 01:45:00,
2013-08-23 21:55:00,60.2,55.3,30.08,NE,36,0.0,8.0,84,0.00,,,0.00,Wunderground v.1.15,2013-08-24 01:55:00,
2013-08-23 22:00:00,60.0,55.5,30.08,NE,36,0.0,8.0,85,0.00,,,0.00,Wunderground v.1.15,2013-08-24 02:00:00,
2013-08-23 22:05:00,59.6,55.1,30.09,NE,36,0.0,8.0,85,0.00,,,0.00,Wunderground v.1.15,2013-08-24 02:05:00,
2013-08-23 22:10:00,59.3,55.1,30.09,NE,36,0.0,8.0,86,0.00,,,0.00,Wunderground v.1.15,2013-08-24 02:10:00,
2013-08-23 22:15:00,59.1,55.2,30.09,NE,36,0.0,8.0,87,0.00,,,0.00,Wunderground v.1.15,2013-08-24 02:15:00,
2013-08-23 22:20:00,59.0,55.1,30.09,NE,36,0.0,8.0,87,0.00,,,0.00,Wunderground v.1.15,2013-08-24 02:20:00,
2013-08-23 22:30:00,58.7,54.8,30.09,NE,36,0.0,8.0,87,0.00,,,0.00,Wunderground v.1.15,2013-08-24 02:30:00,
2013-08-23 22:35:00,58.6,54.7,30.09,NE,36,0.0,8.0,87,0.00,,,0.00,Wunderground v.1.15,2013-08-24 02:35:00,
2013-08-23 22:40:00,58.5,55.0,30.09,NE,36,0.0,8.0,88,0.00,,,0.00,Wunderground v.1.15,2013-08-24 02:40:00,
2013-08-23 22:45:00,58.5,55.0,30.10,NE,36,0.0,8.0,88,0.00,,,0.00,Wunderground v.1.15,2013-08-24 02:45:00,
2013-08-23 22:50:00,58.5,55.0,30.10,NE,36,0.0,8.0,88,0.00,,,0.00,Wunderground v.1.15,2013-08-24 02:50:00,
2013-08-23 22:55:00,58.6,54.7,30.10,NE,36,0.0,8.0,87,0.00,,,0.00,Wunderground v.1.15,2013-08-24 02:55:00,
2013-08-23 23:00:00,58.6,54.7,30.10,NE,36,0.0,8.0,87,0.00,,,0.00,Wunderground v.1.15,2013-08-24 03:00:00,
2013-08-23 23:05:00,58.5,54.3,30.10,NE,36,0.0,8.0,86,0.00,,,0.00,Wunderground v.1.15,2013-08-24 03:05:00,
2013-08-23 23:10:00,58.3,53.5,30.11,NE,36,0.0,8.0,84,0.00,,,0.00,Wunderground v.1.15,2013-08-24 03:10:00,
2013-08-23 23:20:00,58.0,53.5,30.11,NE,36,0.0,8.0,85,0.00,,,0.00,Wunderground v.1.15,2013-08-24 03:20:00,
2013-08-23 23:25:00,57.8,53.3,30.11,NE,36,0.0,8.0,85,0.00,,,0.00,Wunderground v.1.15,2013-08-24 03:25:00,
2013-08-23 23:30:00,57.5,52.7,30.12,NE,36,0.0,8.0,84,0.00,,,0.00,Wunderground v.1.15,2013-08-24 03:30:00,
2013-08-23 23:35:00,57.3,52.8,30.12,NE,36,0.0,8.0,85,0.00,,,0.00,Wunderground v.1.15,2013-08-24 03:35:00,
2013-08-23 23:40:00,57.3,52.5,30.12,NE,36,0.0,8.0,84,0.00,,,0.00,Wunderground v.1.15,2013-08-24 03:40:00,
2013-08-23 23:45:00,57.1,52.0,30.12,NE,36,0.0,8.0,83,0.00,,,0.00,Wunderground v.1.15,2013-08-24 03:45:00,
2013-08-23 23:50:00,56.9,51.1,30.12,NE,36,0.0,8.0,81,0.00,,,0.00,Wunderground v.1.15,2013-08-24 03:50:00,